This is the latest recevied weather packets stored in our database for station/object KH6DH-13. If no packets are shown the sender has not sent any weather packets the latest 10 day(s).
| Time | Temp. | Humidity | Pressure | Rain* | Wind** | Luminosity | Snow |
|---|---|---|---|---|---|---|---|
| 1788309607 | 31.11° C | - | - | 0 mm | 2.24 m/s, 53° | - | - |
| 1788309002 | 30.56° C | - | - | 0 mm | 2.24 m/s, 149° | - | - |
| 1788308401 | 30.56° C | - | - | 0 mm | 2.68 m/s, 190° | - | - |
| 1788307800 | 30.56° C | - | - | 0 mm | 2.24 m/s, 284° | - | - |
| 1788307199 | 30.56° C | - | - | 0 mm | 1.79 m/s, 1° | - | - |
| 1788306598 | 30.56° C | - | - | 0 mm | 2.68 m/s, 93° | - | - |
| 1788305997 | 30.56° C | - | - | 0 mm | 1.79 m/s, 3° | - | - |
| 1788305396 | 30.56° C | - | - | 0 mm | 2.24 m/s, 44° | - | - |
| 1788304792 | 30.56° C | - | - | 0 mm | 3.13 m/s, 59° | - | - |
| 1788304191 | 30.56° C | - | - | 0 mm | 1.34 m/s, 65° | - | - |
| 1788303590 | 30° C | - | - | 0 mm | 2.68 m/s, 82° | - | - |
| 1788302989 | 30° C | - | - | 0 mm | 1.79 m/s, 11° | - | - |
| 1788302388 | 30° C | - | - | 0 mm | 3.13 m/s, 136° | - | - |
| 1788301787 | 30° C | - | - | 0 mm | 2.68 m/s, 94° | - | - |
| 1788301186 | 30° C | - | - | 0 mm | 2.68 m/s, 117° | - | - |
| 1788300585 | 30° C | - | - | 0 mm | 3.13 m/s, 56° | - | - |
| 1788299984 | 30° C | - | - | 0 mm | 2.24 m/s, 98° | - | - |
| 1788299383 | 30° C | - | - | 0 mm | 1.79 m/s, 82° | - | - |
| 1788298782 | 29.44° C | - | - | 0 mm | 2.24 m/s, 94° | - | - |
| 1788298181 | 28.89° C | - | - | 0 mm | 2.68 m/s, 32° | - | - |
| 1788297580 | 29.44° C | - | - | 0 mm | 1.79 m/s, 63° | - | - |
| 1788296979 | 28.89° C | - | - | 0 mm | 2.68 m/s, 101° | - | - |
| 1788296378 | 28.33° C | - | - | 0 mm | 1.79 m/s, 39° | - | - |
| 1788295777 | 28.33° C | - | - | 0 mm | 0.89 m/s, 127° | - | - |
| 1788295176 | 28.33° C | - | - | 0 mm | 1.79 m/s, 76° | - | - |
* Rain latest hour (hover to see other rain measurements)
** Current wind speed in m/s (hover to see current wind gust speed)